Visibility
15.0 15.0 15.0 15.0 15.0 15.0 15.0 15.0 15.0 15.0 15.0 15.0 15.0 15.0 15.0 15.0 15.0 15.0 15.0 12.5 15.0 15.0 15.0 15.0 15.0 12.6 15.0 15.0 15.0 15.0 15.0 15.0 15.0 15.0 15.0 15.0 15.0 15.0 15.0 15.0 15.0 15.0 15.0
15.0 15.0 15.0 15.0 15.0 15.0 15.0 15.0 15.0 15.0 15.0 15.0 15.0 15.0 15.0 15.0 15.0 15.0 11.1 11.5 15.0 15.0 15.0 15.0 15.0 15.0 15.0 15.0 15.0 15.0 15.0 15.0 15.0 15.0 15.0 15.0 15.0 15.0 15.0 15.0 15.0 15.0 15.0
15.0 15.0 15.0 15.0 15.0 15.0 15.0 15.0 15.0 15.0 15.0 15.0 15.0 15.0 15.0 15.0 15.0 15.0 15.0 15.0 0.2 1.2 15.0 15.0 15.0 15.0 15.0 15.0 15.0 15.0 15.0 15.0 15.0 15.0 15.0 15.0 15.0 15.0 15.0 15.0 15.0 15.0 15.0
15.0 15.0 15.0 15.0 15.0 15.0 15.0 15.0 15.0 15.0 15.0 15.0 15.0 15.0 15.0 15.0 15.0 15.0 15.0 13.8 15.0 13.3 0.1 15.0 4.1 15.0 15.0 15.0 15.0 15.0 15.0 15.0 15.0 15.0 15.0 15.0 15.0 15.0 15.0 15.0 15.0 15.0 15.0
15.0 15.0 15.0 15.0 15.0 15.0 15.0 15.0 15.0 15.0 15.0 15.0 15.0 15.0 15.0 15.0 15.0 15.0 15.0 12.8 11.3 10.5 13.2 13.9 11.9 10.0 15.0 15.0 15.0 15.0 15.0 15.0 15.0 15.0 15.0 15.0 15.0 15.0 15.0 15.0 15.0 15.0 15.0
15.0 15.0 15.0 15.0 13.1 15.0 15.0 15.0 15.0 15.0 15.0 9.9 15.0 15.0 15.0 15.0 15.0 15.0 15.0 15.0 12.4 15.0 5.7 15.0 14.9 15.0 15.0 15.0 15.0 15.0 15.0 15.0 15.0 15.0 15.0 15.0 15.0 15.0 15.0 15.0 15.0 15.0 15.0
15.0 15.0 15.0 4.3 15.0 15.0 15.0 15.0 15.0 14.0 10.0 15.0 5.2 15.0 15.0 15.0 15.0 15.0 15.0 15.0 15.0 15.0 15.0 15.0 15.0 15.0 15.0 15.0 15.0 15.0 15.0 15.0 15.0 15.0 15.0 15.0 15.0 15.0 15.0 15.0 15.0 15.0 15.0
15.0 15.0 15.0 15.0 6.0 15.0 5.9 12.2 15.0 4.3 5.0 12.7 15.0 4.6 0.0 0.1 0.3 15.0 15.0 15.0 14.9 15.0 12.5 10.1 15.0 15.0 15.0 15.0 14.8 14.1 15.0 15.0 15.0 15.0 15.0 15.0 15.0 15.0 15.0 15.0 15.0 15.0 15.0
15.0 15.0 15.0 15.0 15.0 15.0 15.0 6.4 13.5 15.0 15.0 15.0 15.0 14.4 0.1 0.1 0.3 15.0 9.3 1.3 15.0 13.0 13.6 15.0 6.9 9.6 7.3 14.0 12.3 14.0 15.0 15.0 15.0 15.0 15.0 15.0 15.0 15.0 15.0 15.0 15.0 15.0 15.0
15.0 15.0 15.0 15.0 15.0 15.0 8.1 15.0 6.0 15.0 15.0 1.5 1.1 13.7 15.0 15.0 15.0 0.1 1.0 1.5 15.0 15.0 15.0 1.9 0.4 10.6 14.9 10.8 8.6 12.5 6.3 15.0 15.0 15.0 15.0 15.0 15.0 15.0 15.0 15.0 15.0 15.0 15.0
15.0 15.0 15.0 15.0 14.9 15.0 14.4 15.0 13.1 15.0 14.7 13.0 1.3 0.1 3.1 12.5 9.5 14.9 0.1 0.1 0.2 14.6 15.0 15.0 6.9 0.5 3.2 2.4 7.8 7.4 8.0 15.0 15.0 15.0 15.0 15.0 15.0 15.0 15.0 15.0 15.0 15.0 15.0
15.0 15.0 15.0 11.9 13.3 15.0 9.2 11.0 15.0 15.0 10.7 14.3 13.0 15.0 10.7 5.1 5.2 15.0 15.0 0.2 0.1 0.3 3.9 10.1 1.1 0.3 2.4 12.3 3.3 13.6 15.0 15.0 15.0 15.0 13.1 8.5 15.0 15.0 15.0 15.0 15.0 15.0 15.0
13.6 15.0 15.0 15.0 15.0 15.0 13.5 13.5 14.0 15.0 10.0 0.2 14.0 15.0 15.0 15.0 15.0 15.0 15.0 15.0 0.5 8.2 0.2 9.5 7.0 0.5 0.6 15.0 15.0 5.3 15.0 15.0 15.0 10.8 4.2 3.8 15.0 15.0 15.0 15.0 15.0 15.0 15.0
15.0 10.6 7.1 6.5 7.8 7.2 15.0 13.5 15.0 15.0 15.0 15.0 15.0 15.0 15.0 15.0 15.0 15.0 15.0 15.0 0.1 0.4 0.7 11.4 0.4 0.8 14.5 15.0 14.8 6.9 7.0 14.6 12.9 8.3 2.9 7.1 15.0 14.7 15.0 15.0 15.0 15.0 15.0
7.1 9.1 15.0 15.0 15.0 15.0 15.0 15.0 15.0 15.0 15.0 15.0 15.0 15.0 15.0 15.0 15.0 15.0 15.0 15.0 15.0 0.1 0.1 0.3 0.1 9.4 10.8 5.8 2.9 11.4 10.5 5.3 4.9 3.3 3.2 7.5 15.0 14.8 15.0 15.0 15.0 15.0 15.0
15.0 15.0 15.0 15.0 15.0 15.0 15.0 15.0 15.0 15.0 15.0 15.0 15.0 15.0 15.0 15.0 15.0 15.0 15.0 15.0 15.0 15.0 15.0 15.0 8.0 6.9 0.6 3.3 2.8 2.7 3.4 4.4 3.3 2.7 3.5 4.6 8.1 15.0 15.0 15.0 15.0 15.0 15.0
15.0 15.0 15.0 15.0 15.0 15.0 15.0 15.0 15.0 15.0 15.0 15.0 15.0 15.0 15.0 15.0 15.0 15.0 15.0 15.0 15.0 15.0 13.2 4.4 15.0 14.1 0.2 0.2 0.2 3.1 2.7 4.0 4.8 4.2 8.7 5.6 14.3 15.0 15.0 15.0 15.0 15.0 15.0
15.0 15.0 15.0 15.0 15.0 15.0 15.0 15.0 15.0 15.0 15.0 15.0 15.0 15.0 15.0 15.0 15.0 15.0 15.0 15.0 15.0 15.0 15.0 0.3 0.3 0.1 1.7 3.9 1.1 0.7 1.8 4.2 2.6 4.0 5.1 14.9 15.0 15.0 15.0 15.0 15.0 15.0 15.0
15.0 15.0 15.0 15.0 15.0 15.0 15.0 15.0 15.0 15.0 15.0 15.0 15.0 15.0 15.0 15.0 15.0 15.0 15.0 15.0 15.0 15.0 13.0 10.4 0.2 14.9 7.9 4.4 0.3 3.2 3.4 2.2 2.6 3.3 14.2 15.0 15.0 15.0 15.0 15.0 15.0 15.0 15.0
15.0 15.0 15.0 15.0 15.0 15.0 15.0 15.0 15.0 15.0 15.0 15.0 15.0 15.0 15.0 15.0 15.0 15.0 15.0 15.0 15.0 15.0 15.0 15.0 9.2 0.4 1.3 0.9 6.9 0.1 0.0 0.1 0.1 8.1 15.0 15.0 15.0 15.0 15.0 15.0 15.0 15.0 15.0
15.0 15.0 15.0 15.0 15.0 15.0 15.0 15.0 15.0 15.0 15.0 15.0 15.0 15.0 15.0 15.0 15.0 15.0 15.0 15.0 15.0 5.1 15.0 15.0 14.6 8.4 0.1 0.1 0.1 0.1 0.1 0.1 1.1 15.0 15.0 15.0 15.0 15.0 15.0 15.0 15.0 15.0 15.0
15.0 15.0 15.0 15.0 15.0 15.0 15.0 15.0 0.1 15.0 15.0 15.0 15.0 15.0 15.0 15.0 15.0 14.2 11.4 14.1 14.9 11.4 9.8 15.0 15.0 7.6 15.0 0.8 0.0 0.0 0.0 0.0 0.0 8.0 15.0 15.0 15.0 15.0 15.0 15.0 15.0 15.0 15.0
15.0 15.0 15.0 15.0 15.0 15.0 15.0 15.0 15.0 15.0 15.0 15.0 15.0 15.0 10.9 15.0 14.9 15.0 15.0 7.9 9.3 7.6 8.8 14.8 15.0 15.0 12.1 1.2 0.1 0.0 0.2 15.0 15.0 6.1 15.0 12.3 15.0 15.0 15.0 15.0 15.0 15.0 15.0
15.0 15.0 15.0 15.0 15.0 15.0 15.0 15.0 15.0 15.0 6.8 0.2 0.0 0.1 0.2 0.2 0.3 1.3 0.2 0.1 0.0 0.0 0.1 3.4 10.6 11.0 5.4 2.6 5.0 11.1 15.0 15.0 6.9 15.0 15.0 1.3 10.9 7.2 15.0 15.0 15.0 15.0 15.0
15.0 15.0 15.0 15.0 15.0 0.0 0.0 0.2 0.1 0.2 0.0 0.0 0.0 0.0 0.0 0.0 0.0 0.2 0.0 0.0 0.0 0.0 0.1 0.2 0.1 2.4 2.1 2.9 9.8 14.9 4.1 0.3 0.0 0.1 3.0 14.0 0.0 0.0 0.1 15.0 15.0 15.0 15.0
15.0 15.0 15.0 15.0 0.3 1.2 0.0 0.1 0.1 0.0 0.0 0.0 0.0 0.0 0.0 0.0 0.0 1.5 0.0 0.0 0.0 0.0 0.0 0.0 0.0 0.1 0.2 1.5 7.1 15.0 15.0 1.8 0.1 0.0 0.0 1.0 0.2 7.5 0.2 0.1 14.6 15.0 15.0